Starlink 4044

operational
NORAD ID: 52662 Int'l Des: 2022-053 Owner: SPXS Country: US Constellation: starlink
LEOCIRCULAR

Starlink 4044について

説明を読み込み中...

リアルタイム位置

3D地球を読み込み中...

次回通過

高度履歴

Altitude vs Time

uPlot chart will show altitude changes over time

軌道要素

1 52662U 22053G 25304.70708631 .00000920 00000-0 75896-4 0 9999
2 52662 53.2183 13.1456 0001193 89.5744 270.5385 15.08838552191574
Epoch: Oct 31, 2025 • Age: 26 hours

現在のステータス

高度 540.2 km
速度 7.60 km/s
衛星直下点 24.10°N, 68.38°E
打ち上げ日 May 18, 2022
運用期間 3.4 years
タイプ internet

技術仕様

分類 Payload
質量 297.00 kg
乾燥質量 275.00 kg
総質量 297.00 kg
長さ 0.20 m
直径 2.80 m
スパン 9.00 m
形状 Box + pan
製造者 SPXS
バスタイプ Starlink
フェーズステータス In Orbit
所有者/国 SPXS/US

大規模コンステレーション

Loading constellations...